Location: Unspecified
(56.5167°N, 0.0000°E)
Time: 10:48:49
(UTC+02:00)

Resurs 1-4 Rocket - Pass Details

Date: 07 August 2020
Orbit: 799 x 815 km, 98.6° (Epoch: 23 September)

Event Time Altitude Azimuth Distance (km) Brightness Sun altitude
Rises 03:27:54 0° 18° (NNE) 3,341 7.2 -15.2°
Reaches altitude 10° 03:30:19 10° 23° (NNE) 2,403 6.0 -15.0°
Maximum altitude 03:35:32 55° 101° (E) 971 2.6 -14.8°
Enters shadow 03:39:23 18° 174° (S) 1,896 3.5 -14.6°
